Location: Edelsbach
(47.0167°N, 15.6000°E)
Time: 07:08:53
(UTC+00:00)

Daily predictions for brighter satellites

Satellite Brightness Start Highest point End
(mag) Time Altitude Azimuth Time Altitude Azimuth Time Altitude Azimuth
Meteor 2-3 Rocket 4.2 18:41:47 10° SSW 18:47:35 73° WNW 18:53:25 10° N
FREGAT/IRIS 3.1 18:49:34 10° S 18:52:08 52° W 18:54:45 10° NNW
Cosmos 2218 Rocket 4.1 18:47:41 10° S 18:53:52 88° W 19:00:04 10° N
H-2A R/B 3.6 18:52:30 10° SSW 18:57:14 36° W 19:01:53 10° NNW
Cosmos 1782 3.2 18:53:16 10° NNW 18:57:16 69° W 19:01:16 10° S
Cosmos 1980 Rocket 3.5 18:55:15 10° N 19:00:06 28° NE 19:04:54 10° ESE
Cosmos 1805 Rocket 4.0 18:56:03 10° SSE 19:00:13 42° E 19:04:26 10° NNE
ERBS 3.1 18:58:47 10° WSW 19:02:03 54° NNW 19:05:19 10° NE
DMSP B5D2-2 4.1 19:00:10 10° NNE 19:05:25 84° ESE 19:10:40 10° SSW
ATLAS 5 CENTAUR R/B 2.5 19:03:09 10° NW 19:08:51 85° SW 19:15:31 10° SE
Cosmos 1140 Rocket 4.4 19:05:22 10° SSE 19:09:45 28° E 19:14:10 10° NE
SL-4 R/B 2.9 19:06:38 10° SSW 19:09:59 26° SE 19:13:09 10° E
Cosmos 1697 Rocket 2.9 19:10:42 10° NNW 19:16:16 57° ENE 19:21:20 12° SE
Cosmos 1833 Rocket 3.0 19:11:30 10° S 19:16:48 45° ESE 19:22:09 10° NE
Cosmos 2228 Rocket 3.4 19:13:11 10° NNW 19:17:37 69° W 19:21:58 10° S
Cosmos 389 Rocket 2.3 19:17:13 10° N 19:20:41 83° E 19:24:07 10° SSE
SPOT 3 Rocket 3.7 19:16:02 10° SSE 19:21:15 80° WSW 19:26:29 10° NNW
Cosmos 1633 Rocket 4.0 19:18:04 10° SSE 19:21:53 30° E 19:25:44 10° NNE
Cosmos 1812 2.6 19:18:43 10° N 19:22:34 74° E 19:26:24 10° SSE
Cosmos 1727 Rocket 4.3 19:16:20 10° NNW 19:22:40 73° W 19:28:59 10° S
Cosmos 2251 Rocket 4.2 19:18:37 10° SW 19:23:48 61° WNW 19:29:04 10° NNE
Cosmos 1656 3.9 19:22:22 10° NNW 19:27:50 71° WSW 19:33:20 10° SSE
IRIDIUM 104 4.4 19:26:27 10° S 19:31:40 87° W 19:36:55 10° N
Cosmos 1707 Rocket 3.6 19:27:43 10° N 19:32:03 61° ENE 19:35:44 14° SSE
Cosmos 220 Rocket 3.9 19:28:07 10° NNW 19:32:20 84° WSW 19:36:05 13° SSE
Resurs 01 Rocket 1.7 19:27:57 10° SSE 19:32:22 85° WSW 19:36:50 10° NNW
Landsat 7 4.2 19:30:06 15° SE 19:33:54 49° ENE 19:38:29 10° N
FALCON 9 DEB 4.0 19:35:07 10° SSW 19:38:09 28° SE 19:41:13 10° ENE
Cosmos 1441 Rocket 3.2 19:34:34 10° SSW 19:38:22 86° W 19:42:09 10° N
Cosmos 1934 Rocket 4.2 19:32:56 10° SSE 19:39:02 52° E 19:45:12 10° NNE
Cosmos 614 Rocket 4.0 19:37:03 10° SSW 19:42:13 88° ESE 19:47:27 10° NNE
NOSS 3-2 (A) 4.2 19:38:30 10° S 19:43:12 28° ESE 19:48:23 10° NE
Cosmos 2360 4.3 19:37:31 10° NNW 19:43:17 70° ENE 19:47:32 18° SE
IGS 5A 3.6 19:41:07 18° SSE 19:44:01 58° ENE 19:48:07 10° N
USA 267 3.2 19:40:38 10° NE 19:47:12 79° SE 19:53:46 10° SW
SWAS 4.4 19:45:25 10° SSW 19:49:40 63° ESE 19:53:58 10° NE
GP-B 3.4 19:46:06 10° NNE 19:50:26 50° E 19:53:14 20° SSE
Cosmos 1821 Rocket 4.1 19:46:07 10° SSW 19:52:14 80° W 19:58:31 10° N
COSMOS 2406 3.6 19:49:02 10° SW 19:54:46 69° WNW 20:00:31 10° NNE
Shenzhou-11 Module 3.0 19:53:54 10° WSW 19:55:30 22° SSW 19:55:30 22° SSW
Cosmos 921 Rocket 3.9 19:52:21 10° N 19:56:13 33° ENE 19:58:03 23° ESE
Intercosmos 25 4.2 19:53:59 10° NNW 19:58:23 47° W 20:01:26 11° SSW
Cosmos 1862 Rocket 3.7 19:54:10 10° N 19:58:36 57° ENE 20:01:01 25° SSE
SL-16 R/B 3.7 19:54:08 10° N 19:58:49 25° NE 20:02:26 14° E
ERS-1 Rocket 3.4 19:56:09 22° SE 19:59:03 47° ENE 20:03:52 10° N
Lacrosse 5 3.1 19:57:23 10° NW 20:02:05 36° NNE 20:06:22 12° E
Cosmos 2369 3.8 19:58:20 10° NNW 20:04:05 74° WSW 20:08:05 20° SSE
Sich 1 3.7 20:00:12 10° SSW 20:04:34 56° WNW 20:08:57 10° N
SAR-Lupe-2 4.3 20:03:57 10° NNE 20:07:14 33° E 20:07:36 32° ESE
Cosmos 1818 4.1 20:03:35 10° NW 20:08:52 52° WSW 20:12:24 20° S
BREEZE-M DEB (TANK) 2.4 20:06:53 10° WNW 20:09:22 47° N 20:09:54 34° NE
Cosmos 2082 Rocket 2.1 20:04:09 10° SSW 20:09:49 70° ESE 20:15:29 10° NNE
Cosmos 1954 Rocket 4.1 20:06:50 13° S 20:11:32 58° ESE 20:16:46 10° NNE
Cosmos 2123 Rocket 4.0 20:07:02 10° N 20:13:16 84° W 20:18:06 18° S
Cosmos 2278 3.7 20:07:38 10° NNW 20:13:24 90° WSW 20:16:44 26° SSE
Spot 2 Rocket 3.6 20:11:24 19° S 20:15:03 73° WSW 20:20:11 10° NNW
Cosmos 1535 Rocket 4.4 20:09:12 10° S 20:15:21 90° ENE 20:21:31 10° N
Meteor 1-4 Rocket 3.0 20:17:32 10° NNW 20:20:56 54° W 20:22:26 29° SSW
Cosmos 2322 Rocket 3.5 20:16:25 10° N 20:21:22 29° NE 20:24:25 19° E
CARTOSAT-1 3.5 20:20:05 34° SSE 20:21:53 73° ENE 20:26:12 10° N
Cosmos 1184 Rocket 2.7 20:21:02 40° S 20:22:07 88° E 20:25:26 10° NNE
Cosmos 1190 Rocket 4.2 20:17:19 10° SSW 20:22:35 72° WNW 20:27:55 10° NNE
USA 234 3.2 20:18:46 25° SE 20:22:50 81° SW 20:29:25 10° NW
Terra 2.2 20:21:08 31° SE 20:22:59 49° ENE 20:27:35 10° N
Cosmos 407 Rocket 4.2 20:20:21 10° SW 20:25:35 57° WNW 20:30:49 10° NNE
Cosmos 1933 Rocket 3.7 20:24:16 37° SSE 20:25:39 53° E 20:29:59 10° NNE
Cosmos 1605 Rocket 3.9 20:21:08 19° S 20:25:39 75° E 20:31:45 10° NNE
Cosmos 1666 Rocket 4.4 20:22:00 10° SSW 20:26:11 49° WNW 20:30:25 10° N
Meteor 1-20 Rocket 4.2 20:23:25 20° S 20:27:31 74° E 20:33:22 10° NNE
Cosmos 1238 Rocket 2.0 20:28:02 65° E 20:28:02 65° E 20:30:57 10° NNE
Okean 1 3.5 20:26:34 10° N 20:30:34 57° ENE 20:31:27 45° SE
Cosmos 1602 3.9 20:31:37 48° SE 20:32:14 55° E 20:36:06 10° NNE
ATLAS 3B R/B 4.3 20:34:00 14° E 20:34:00 14° E 20:36:10 10° ENE
Cosmos 1437 Rocket 3.2 20:31:27 10° N 20:35:06 41° ENE 20:35:27 39° E
Cosmos 2360 Rocket 3.9 20:30:57 10° N 20:35:25 23° NE 20:38:35 15° E
SPOT 5 2.5 20:35:54 41° SSE 20:37:21 88° E 20:41:44 10° NNW
USA 238 DEB 3.6 20:32:10 10° SSW 20:38:41 65° ESE 20:45:30 10° NE
USA 238 3.6 20:32:18 10° SSW 20:38:48 64° ESE 20:45:36 10° NE
Meteor 1-19 Rocket 4.1 20:34:46 10° N 20:40:10 67° ENE 20:42:13 38° SE
Iridium 4 Rocket 4.1 20:41:58 29° E 20:42:07 29° E 20:45:49 10° NNE
SPOT 1/Viking Rocket 4.2 20:39:53 23° SSW 20:43:00 51° W 20:48:07 10° NNW
Cosmos 1980 Rocket 2.5 20:38:55 10° NNW 20:44:30 59° WSW 20:47:05 31° S
Cosmos 1703 Rocket 3.5 20:41:56 10° N 20:46:17 64° E 20:47:06 52° SE
Cosmos 2242 Rocket 3.5 20:41:50 10° N 20:46:18 88° E 20:47:28 49° SSE
Meteor 1-14 Rocket 4.3 20:46:52 36° SSE 20:49:17 65° E 20:55:10 10° NNE
SL-4 R/B 1.8 20:45:29 10° WSW 20:49:22 75° NNW 20:51:35 22° ENE
Cosmos 1763 Rocket 3.7 20:44:09 10° NNW 20:49:28 64° ENE 20:51:08 42° SE
Cosmos 1500 4.4 20:50:18 28° ENE 20:50:18 28° ENE 20:52:53 10° NNE
Cosmos 405 Rocket 2.5 20:49:22 65° SSW 20:49:52 87° WNW 20:53:37 10° N
Genesis I 3.6 20:46:31 10° NW 20:50:17 50° WSW 20:50:44 47° SSW
BREEZE-M DEB (TANK) 3.3 20:47:12 10° W 20:50:23 68° N 21:00:24 10° E
ATLAS 5 CENTAUR R/B 4.4 20:49:03 10° WNW 20:53:05 19° WSW 20:57:17 10° SSW
Cosmos 2333 Rocket 4.4 20:51:38 10° N 20:55:14 17° NE 20:58:50 10° ENE
MOS 1-B Rocket 4.5 20:50:28 10° NNE 20:55:36 34° E 20:56:13 33° ESE
Cosmos 1697 Rocket 4.4 20:55:21 10° NW 20:59:49 25° WSW 21:03:04 15° SW
Cosmos 1459 Rocket 4.2 20:58:06 39° SE 21:00:01 53° E 21:06:09 10° NNE
Cosmos 1833 Rocket 4.3 20:55:49 10° WSW 21:00:53 34° NW 21:05:59 10° NNE
Cosmos 1153 Rocket 4.4 21:03:26 31° SSW 21:06:33 85° W 21:12:45 10° N
CENTAUR R/B 2.5 21:04:45 36° S 21:07:09 60° ESE 21:14:01 10° NE
Cosmos 1867 4.0 21:01:54 10° SW 21:07:17 62° NW 21:12:44 10° NNE
Meteor 1-18 Rocket 4.4 21:02:13 10° NNW 21:07:46 67° W 21:09:49 39° SSW
Okean 1-7 2.9 21:03:36 10° N 21:07:58 85° W 21:08:30 68° S
Cosmos 2221 Rocket 4.5 21:04:42 10° N 21:08:49 35° ENE 21:09:01 35° E
Okean 3 4.0 21:09:51 10° N 21:14:00 46° ENE 21:14:00 46° ENE
FALCON 9 DEB 3.7 21:11:35 10° WSW 21:15:02 57° NNW 21:15:21 54° N
Cosmos 1802 Rocket 4.2 21:13:52 44° SE 21:15:34 57° E 21:21:47 10° NNE
Cosmos 1850 Rocket 3.9 21:14:19 48° S 21:15:49 82° ESE 21:21:08 10° NNE
Thor Agena Rocket 4.4 21:12:05 10° NNE 21:16:25 33° E 21:16:25 33° E
Meteor 2-4 Rocket 3.6 21:11:47 10° N 21:17:32 83° E 21:18:53 54° SSE
SL-27 R/B 4.1 21:19:37 26° NE 21:19:37 26° NE 21:21:15 10° NNE
Cosmos 1515 4.0 21:14:33 10° NNW 21:18:20 57° W 21:18:22 57° W
Cosmos 44 3.7 21:17:17 10° NNW 21:22:05 55° NE 21:23:09 46° E
ATLAS 5 CENTAUR R/B 2.6 21:19:26 10° NNW 21:22:12 52° NE 21:23:25 40° E
Spot 4 4.1 21:27:26 50° E 21:27:54 52° ENE 21:32:34 10° N
USA 267 4.2 21:23:46 10° NE 21:30:00 48° NNW 21:36:13 10° W
BREEZE-M DEB (TANK) 4.4 21:16:10 10° W 21:32:31 84° S 21:35:19 30° E
NOSS 3-2 (A) 3.8 21:27:44 10° SW 21:33:28 62° NW 21:40:04 10° NE
NOSS 3-2 (C) 3.4 21:35:51 27° SW 21:39:13 84° NW 21:45:52 10° NE
Cosmos 841 Rocket 3.3 21:36:12 10° NNW 21:41:28 90° SW 21:42:00 72° SSE
Cosmos 540 Rocket 3.3 21:37:41 10° NNW 21:42:53 90° NNE 21:43:22 75° SSE
SL-16 R/B 2.2 21:37:47 10° NNW 21:43:25 67° WSW 21:44:17 58° SSW
Lacrosse 5 1.7 21:40:21 10° NW 21:45:26 76° SW 21:45:31 75° SSW
Cosmos 1570 Rocket 4.0 21:47:24 10° NNW 21:52:43 72° WSW 21:53:10 67° SW
Tsikada Rocket 4.0 21:47:18 10° N 21:53:41 71° E 21:54:55 57° SE
Cosmos 2082 Rocket 4.3 21:49:52 10° W 21:54:27 24° NW 21:59:03 10° N
Cosmos 2219 Rocket 3.5 21:49:32 10° NNW 21:54:35 31° NE 21:56:38 25° E
Cosmos 2208 Rocket 3.8 21:49:33 10° NNW 21:54:51 81° WSW 21:55:11 76° SSW
Cosmos 1814 Rocket 3.8 21:50:00 10° NNW 21:55:13 85° WSW 21:55:32 79° S
Cosmos 2084 Rocket 4.1 21:59:01 49° NE 21:59:01 49° NE 22:02:14 10° NE
Cosmos 2237 4.1 21:54:08 10° NNW 21:59:53 85° ENE 22:00:34 70° SE
Terra 3.6 22:00:02 20° WSW 22:00:59 22° W 22:04:40 10° NW
Cosmos 2322 Rocket 2.4 22:00:11 10° NW 22:05:44 55° WSW 22:06:13 53° SW
EO 1 Del DPAF 4.3 22:02:24 10° NNE 22:04:57 41° NNE 22:04:57 41° NNE
USA 234 4.4 22:06:06 25° SW 22:06:28 25° SW 22:11:42 10° WNW
Meteor 1-11 Rocket 3.7 22:09:09 66° SW 22:09:56 80° WNW 22:15:43 10° N
Helios 1A 4.4 22:13:11 30° ENE 22:13:11 30° ENE 22:16:36 10° N
Cosmos 1242 Rocket 4.0 22:09:48 10° N 22:12:07 37° N 22:12:07 37° N
Cosmos 2360 Rocket 2.1 22:14:21 10° NNW 22:20:03 76° WSW 22:20:19 74° SW
COSMOS 2428 3.6 22:15:40 10° NNW 22:21:07 42° NE 22:22:37 36° E
ATLAS 3B R/B 2.4 22:21:12 63° S 22:22:12 76° SE 22:28:52 10° NE
ALOS 2 2.9 22:27:44 63° NNW 22:27:44 63° NNW 22:31:29 10° NNW
Cosmos 1725 Rocket 4.2 22:27:20 50° SW 22:28:47 63° WNW 22:35:05 10° N
SL-4 R/B 4.0 22:25:47 10° WNW 22:27:13 20° WNW 22:27:13 20° WNW
Nimbus 7 Rocket 4.2 22:25:42 10° NNE 22:31:37 88° ESE 22:32:15 73° S
Cosmos 2297 Rocket 4.5 22:34:20 10° E 22:34:20 10° E 22:35:00 10° E
Cosmos 1536 4.0 22:34:39 38° NW 22:34:39 38° NW 22:37:46 10° N
Cosmos 1674 Rocket 4.1 22:29:43 10° NNW 22:33:13 54° NW 22:33:13 54° NW
Cosmos 1666 4.4 22:37:32 28° NW 22:37:32 28° NW 22:40:09 10° N
Cosmos 1743 4.0 22:38:17 39° NNE 22:38:17 39° NNE 22:40:50 10° NNE
Cosmos 2333 Rocket 2.3 22:34:52 10° NNW 22:40:39 69° ENE 22:41:19 63° ESE
Cosmos 1271 Rocket 4.0 22:38:21 10° N 22:40:47 38° N 22:40:47 38° N
Lacrosse 4 Rocket 2.5 22:45:23 39° NE 22:45:23 39° NE 22:48:07 10° NE
Cosmos 2237 Rocket 3.8 22:39:51 10° N 22:44:43 28° NE 22:47:32 19° E
Cosmos 1733 Rocket 4.2 22:50:59 37° WNW 22:50:59 37° WNW 22:54:49 10° N
Meteor 2-11 Rocket 4.2 22:51:23 74° SSW 22:51:59 88° W 22:58:08 10° N
Cosmos 44 Rocket 3.8 22:52:08 10° NNW 22:57:01 54° NE 22:57:31 52° ENE
CENTAUR R/B 3.8 22:52:20 10° WSW 22:58:13 40° NNW 23:05:08 10° NE
Cosmos 836 Rocket 4.5 22:53:10 10° NNW 22:58:03 75° WNW 22:58:03 75° WNW
Cosmos 968 Rocket 3.4 22:59:01 78° NNE 22:59:01 78° NNE 23:03:50 10° NNE
Cosmos 1975 4.0 23:02:22 41° NNE 23:02:22 41° NNE 23:05:07 10° NNE
SL-24 DEB 4.5 23:00:57 10° N 23:05:18 67° NW 23:05:18 67° NW
Cosmos 1354 Rocket 4.2 23:07:09 61° E 23:07:09 61° E 23:12:04 10° NNE
Resurs 1-4 Rocket 4.3 23:05:24 10° ENE 23:07:34 12° E 23:08:21 12° E
Cosmos 1782 Rocket 4.2 23:10:37 54° NNE 23:10:37 54° NNE 23:14:02 10° NNE
Cosmos 1464 Rocket 3.8 23:15:36 70° SSE 23:16:19 80° E 23:22:32 10° N
Cosmos 1707 4.2 23:13:23 10° N 23:16:13 34° NE 23:16:13 34° NE
Cosmos 1908 Rocket 4.4 23:18:33 45° NW 23:18:33 45° NW 23:22:09 10° N
Cosmos 2227 Rocket 3.7 23:22:42 24° ESE 23:22:43 24° ESE 23:27:07 10° NE
Helios 1B rocket 3.6 23:18:56 10° NNE 23:21:48 36° ENE 23:21:48 36° ENE
CZ-4 R/B 4.1 23:18:18 10° NNE 23:23:00 65° E 23:23:00 65° E
Meteor 1-21 4.1 23:19:12 10° NNW 23:25:02 83° W 23:25:21 79° SSW
Cosmos 2322 4.4 23:24:52 10° NW 23:29:31 39° W 23:29:31 39° W
Nadezhda 4 Rocket 3.9 23:30:46 10° N 23:37:06 86° E 23:38:04 66° SSE
Cosmos 2219 Rocket 2.6 23:33:18 10° NW 23:38:19 49° W 23:38:19 49° W
Cosmos 1975 Rocket 4.0 23:38:59 10° NNW 23:42:25 42° NW 23:42:25 42° NW
Okean 2 Rocket 3.4 23:45:22 62° NE 23:45:22 62° NE 23:49:18 10° NNE
Cosmos 2034 Rocket 3.8 23:43:53 68° S 23:44:48 89° W 23:51:10 10° N
Cosmos 1503 Rocket 4.3 23:45:55 56° W 23:46:22 58° WNW 23:51:42 10° NNE
SL-16 R/B 3.4 23:46:16 26° ESE 23:49:26 45° ENE 23:55:20 10° N
ADEOS II 4.5 23:49:18 10° ENE 23:51:18 12° E 23:53:17 10° ESE
Cosmos 1092 Rocket 4.1 23:45:04 10° N 23:51:20 71° E 23:52:45 53° SE
Cosmos 1300 Rocket 3.9 23:52:28 62° NNE 23:52:28 62° NNE 23:56:08 10° NNE
GEOS 3 Rocket 4.0 23:48:03 10° NE 23:53:17 51° ESE 23:53:17 51° ESE
CZ-2D R/B 3.4 23:49:01 10° NNE 23:53:53 31° E 23:54:54 29° ESE
Sich 1 Rocket 4.1 23:55:31 52° NW 23:55:31 52° NW 23:59:17 10° N
